N236G KMVY-KALB

Flight info

Callsign N236G
Flight time 1h 8m
Altitude 6000
Route PVD V146 ALB
Aircraft BE58/L-SDFGRY/C

Departure

Time 2026-05-08 23:32
Airport Martha's Vineyard Airport (KMVY)

Arrival

Time 2026-05-09 00:40
Airport Albany International Airport (KALB)
Time Latitude Longitude Altitude Speed Heading
2026-05-08 23:11 41.39352 -70.60887 62 ft 0 kts 221°
2026-05-08 23:28 41.39365 -70.60891 61 ft 10 kts 48°
2026-05-08 23:28 41.39427 -70.60878 56 ft 12 kts 36°
2026-05-08 23:28 41.39498 -70.60794 62 ft 16 kts 38°
2026-05-08 23:29 41.39589 -70.60689 65 ft 19 kts 40°
2026-05-08 23:29 41.39693 -70.60572 66 ft 10 kts 42°
2026-05-08 23:29 41.39754 -70.60550 66 ft 9 kts 318°
2026-05-08 23:29 41.39757 -70.60555 66 ft 0 kts 310°
2026-05-08 23:30 41.39774 -70.60582 61 ft 9 kts 309°
2026-05-08 23:31 41.39798 -70.60647 64 ft 1 kts 217°
2026-05-08 23:31 41.39742 -70.60711 67 ft 43 kts 219°
2026-05-08 23:31 41.39305 -70.61209 119 ft 109 kts 223°
2026-05-08 23:31 41.38730 -70.61892 639 ft 111 kts 226°
2026-05-08 23:32 41.38131 -70.62649 969 ft 132 kts 225°
2026-05-08 23:32 41.37411 -70.63429 1167 ft 134 kts 225°
2026-05-08 23:32 41.36684 -70.64214 1355 ft 136 kts 225°
2026-05-08 23:32 41.35944 -70.65015 1545 ft 135 kts 226°
2026-05-08 23:33 41.35512 -70.66038 1726 ft 129 kts 266°
2026-05-08 23:33 41.35765 -70.67164 1915 ft 130 kts 294°
2026-05-08 23:33 41.36187 -70.68269 2146 ft 134 kts 294°
2026-05-08 23:33 41.36458 -70.68996 2321 ft 134 kts 294°
2026-05-08 23:34 41.37145 -70.70387 2668 ft 136 kts 306°
2026-05-08 23:34 41.37757 -70.71348 2926 ft 137 kts 306°
2026-05-08 23:34 41.38143 -70.72023 3108 ft 137 kts 303°
2026-05-08 23:34 41.38535 -70.73167 3359 ft 135 kts 286°
2026-05-08 23:35 41.38975 -70.74272 3614 ft 137 kts 298°
2026-05-08 23:35 41.39634 -70.75714 3962 ft 137 kts 300°
2026-05-08 23:35 41.39969 -70.76420 4129 ft 136 kts 300°
2026-05-08 23:35 41.40487 -70.77489 4391 ft 136 kts 300°
2026-05-08 23:36 41.41001 -70.78541 4651 ft 136 kts 300°
2026-05-08 23:36 41.41513 -70.79588 4906 ft 135 kts 301°
2026-05-08 23:36 41.42022 -70.80627 5154 ft 134 kts 300°
2026-05-08 23:36 41.42532 -70.81666 5413 ft 133 kts 300°
2026-05-08 23:37 41.43029 -70.82681 5670 ft 131 kts 300°
2026-05-08 23:37 41.43528 -70.83700 5919 ft 131 kts 300°
2026-05-08 23:37 41.44045 -70.84758 5938 ft 143 kts 300°
2026-05-08 23:37 41.44605 -70.85900 5948 ft 152 kts 300°
2026-05-08 23:38 41.45200 -70.87112 5946 ft 158 kts 301°
2026-05-08 23:38 41.45713 -70.88403 5943 ft 160 kts 294°
2026-05-08 23:38 41.46527 -70.89450 5932 ft 168 kts 325°
2026-05-08 23:38 41.47471 -70.90334 5932 ft 167 kts 315°
2026-05-08 23:39 41.48226 -70.91500 5933 ft 166 kts 302°
2026-05-08 23:39 41.48885 -70.92785 5932 ft 167 kts 301°
2026-05-08 23:39 41.49513 -70.94083 5932 ft 167 kts 300°
2026-05-08 23:39 41.50138 -70.95402 5932 ft 168 kts 300°
2026-05-08 23:40 41.50757 -70.96711 5931 ft 168 kts 300°
2026-05-08 23:40 41.51381 -70.98030 5926 ft 168 kts 300°
2026-05-08 23:40 41.52010 -70.99355 5928 ft 168 kts 300°
2026-05-08 23:40 41.52630 -71.00648 5925 ft 164 kts 300°
2026-05-08 23:41 41.53243 -71.01917 5919 ft 161 kts 300°
2026-05-08 23:41 41.53852 -71.03173 5915 ft 159 kts 300°
2026-05-08 23:41 41.54449 -71.04401 5913 ft 158 kts 300°
2026-05-08 23:41 41.55044 -71.05626 5928 ft 157 kts 300°
2026-05-08 23:42 41.55629 -71.06822 5996 ft 152 kts 300°
2026-05-08 23:42 41.56205 -71.08001 5994 ft 152 kts 300°
2026-05-08 23:42 41.56783 -71.09186 5997 ft 152 kts 300°
2026-05-08 23:42 41.57367 -71.10382 5997 ft 153 kts 300°
2026-05-08 23:43 41.57946 -71.11571 6000 ft 154 kts 300°
2026-05-08 23:43 41.58527 -71.12762 5998 ft 154 kts 300°
2026-05-08 23:43 41.59117 -71.13970 5997 ft 154 kts 300°
2026-05-08 23:43 41.59702 -71.15166 6000 ft 155 kts 300°
2026-05-08 23:44 41.60286 -71.16359 6001 ft 154 kts 300°
2026-05-08 23:44 41.60879 -71.17565 6001 ft 155 kts 300°
2026-05-08 23:44 41.61465 -71.18758 6004 ft 155 kts 300°
2026-05-08 23:44 41.62063 -71.19975 6006 ft 155 kts 300°
2026-05-08 23:45 41.62655 -71.21175 5939 ft 154 kts 302°
2026-05-08 23:45 41.63128 -71.22434 6002 ft 151 kts 285°
2026-05-08 23:45 41.63514 -71.23735 6003 ft 153 kts 298°
2026-05-08 23:45 41.64049 -71.24980 6003 ft 155 kts 299°
2026-05-08 23:46 41.64603 -71.26205 6002 ft 155 kts 300°
2026-05-08 23:46 41.65169 -71.27430 6002 ft 156 kts 301°
2026-05-08 23:46 41.65742 -71.28654 6000 ft 156 kts 301°
2026-05-08 23:46 41.66327 -71.29904 6003 ft 159 kts 301°
2026-05-08 23:47 41.66917 -71.31166 6001 ft 162 kts 302°
2026-05-08 23:47 41.67519 -71.32451 6001 ft 165 kts 302°
2026-05-08 23:47 41.68133 -71.33765 6005 ft 167 kts 302°
2026-05-08 23:47 41.68752 -71.35088 6009 ft 168 kts 302°
2026-05-08 23:48 41.69371 -71.36409 6011 ft 169 kts 302°
2026-05-08 23:48 41.69994 -71.37741 6014 ft 170 kts 302°
2026-05-08 23:48 41.70620 -71.39080 6016 ft 172 kts 302°
2026-05-08 23:48 41.71257 -71.40445 6020 ft 172 kts 301°
2026-05-08 23:49 41.71893 -71.41806 6019 ft 174 kts 302°
2026-05-08 23:49 41.72545 -71.43170 6018 ft 175 kts 303°
2026-05-08 23:49 41.73298 -71.44443 6020 ft 176 kts 310°
2026-05-08 23:49 41.74111 -71.45680 6016 ft 176 kts 309°
2026-05-08 23:50 41.74870 -71.46962 6018 ft 175 kts 308°
2026-05-08 23:50 41.75625 -71.48235 6019 ft 175 kts 308°
2026-05-08 23:50 41.76387 -71.49498 6018 ft 175 kts 308°
2026-05-08 23:50 41.77163 -71.50778 6016 ft 175 kts 308°
2026-05-08 23:51 41.77926 -71.52039 6016 ft 175 kts 308°
2026-05-08 23:51 41.78688 -71.53302 6021 ft 175 kts 308°
2026-05-08 23:51 41.79447 -71.54558 6019 ft 175 kts 308°
2026-05-08 23:51 41.80216 -71.55831 6020 ft 175 kts 308°
2026-05-08 23:52 41.80987 -71.57105 6090 ft 179 kts 305°
2026-05-08 23:52 41.81773 -71.58409 6018 ft 180 kts 306°
2026-05-08 23:52 41.82557 -71.59707 6020 ft 178 kts 306°
2026-05-08 23:52 41.83339 -71.61001 6018 ft 175 kts 306°
2026-05-08 23:53 41.84094 -71.62251 6006 ft 171 kts 306°
2026-05-08 23:53 41.84831 -71.63474 6003 ft 168 kts 305°
2026-05-08 23:53 41.85563 -71.64690 5996 ft 165 kts 305°
2026-05-08 23:53 41.86283 -71.65885 5996 ft 166 kts 305°
2026-05-08 23:54 41.87005 -71.67082 5997 ft 167 kts 305°
2026-05-08 23:54 41.87748 -71.68315 5998 ft 169 kts 306°
2026-05-08 23:54 41.88485 -71.69538 5998 ft 170 kts 305°
2026-05-08 23:55 41.89962 -71.71989 6114 ft 166 kts 305°
2026-05-08 23:55 41.90682 -71.73184 6250 ft 166 kts 305°
2026-05-08 23:55 41.91411 -71.74397 6380 ft 166 kts 305°
2026-05-08 23:55 41.92134 -71.75598 6510 ft 165 kts 305°
2026-05-08 23:56 41.92844 -71.76778 6680 ft 162 kts 305°
2026-05-08 23:56 41.93543 -71.77940 6859 ft 160 kts 304°
2026-05-08 23:56 41.94217 -71.79126 7032 ft 157 kts 300°
2026-05-08 23:56 41.94796 -71.80354 7207 ft 155 kts 298°
2026-05-08 23:57 41.95271 -71.81640 7381 ft 153 kts 287°
2026-05-08 23:57 41.95543 -71.83001 7558 ft 150 kts 282°
2026-05-08 23:57 41.95784 -71.84367 7730 ft 149 kts 282°
2026-05-08 23:57 41.96032 -71.85713 7917 ft 148 kts 284°
2026-05-08 23:58 41.96307 -71.87053 8004 ft 152 kts 284°
2026-05-08 23:58 41.96574 -71.88470 8010 ft 159 kts 282°
2026-05-08 23:58 41.96919 -71.89890 8012 ft 161 kts 289°
2026-05-08 23:58 41.97300 -71.91277 8005 ft 157 kts 288°
2026-05-08 23:59 41.97660 -71.92654 8001 ft 157 kts 287°
2026-05-08 23:59 41.98019 -71.94050 8002 ft 157 kts 287°
2026-05-08 23:59 41.98374 -71.95436 8006 ft 158 kts 287°
2026-05-08 23:59 41.98730 -71.96828 7999 ft 158 kts 287°
2026-05-09 00:00 41.99088 -71.98221 8008 ft 158 kts 287°
2026-05-09 00:00 41.99450 -71.99633 8022 ft 158 kts 287°
2026-05-09 00:00 41.99806 -72.01027 8024 ft 158 kts 287°
2026-05-09 00:00 42.00162 -72.02416 8019 ft 158 kts 287°
2026-05-09 00:01 42.00523 -72.03825 8019 ft 158 kts 287°
2026-05-09 00:01 42.00881 -72.05223 8019 ft 159 kts 287°
2026-05-09 00:01 42.01239 -72.06621 8018 ft 159 kts 287°
2026-05-09 00:01 42.01597 -72.08021 8021 ft 158 kts 287°
2026-05-09 00:02 42.01953 -72.09411 8015 ft 158 kts 287°
2026-05-09 00:02 42.02314 -72.10820 8024 ft 159 kts 287°
2026-05-09 00:02 42.02672 -72.12219 8018 ft 159 kts 287°
2026-05-09 00:02 42.03032 -72.13626 8019 ft 159 kts 287°
2026-05-09 00:03 42.03394 -72.15039 8017 ft 159 kts 287°
2026-05-09 00:03 42.03750 -72.16432 8014 ft 158 kts 287°
2026-05-09 00:03 42.04079 -72.17834 8020 ft 157 kts 278°
2026-05-09 00:03 42.04134 -72.19297 7994 ft 157 kts 276°
2026-05-09 00:04 42.04380 -72.20725 7990 ft 157 kts 283°
2026-05-09 00:04 42.04681 -72.22131 7987 ft 158 kts 285°
2026-05-09 00:04 42.05009 -72.23545 7995 ft 158 kts 286°
2026-05-09 00:04 42.05347 -72.24960 8001 ft 158 kts 286°
2026-05-09 00:05 42.05686 -72.26367 7987 ft 159 kts 286°
2026-05-09 00:05 42.06030 -72.27792 7984 ft 159 kts 286°
2026-05-09 00:05 42.06367 -72.29187 7988 ft 158 kts 286°
2026-05-09 00:05 42.06708 -72.30603 7994 ft 159 kts 286°
2026-05-09 00:06 42.07050 -72.32017 7985 ft 159 kts 286°
2026-05-09 00:06 42.07389 -72.33424 7979 ft 159 kts 286°
2026-05-09 00:06 42.07733 -72.34853 7988 ft 160 kts 286°
2026-05-09 00:06 42.08075 -72.36268 7988 ft 160 kts 286°
2026-05-09 00:07 42.08423 -72.37711 7989 ft 161 kts 286°
2026-05-09 00:07 42.08767 -72.39140 7986 ft 161 kts 286°
2026-05-09 00:07 42.09111 -72.40568 7987 ft 161 kts 286°
2026-05-09 00:07 42.09459 -72.42012 8000 ft 161 kts 286°
2026-05-09 00:08 42.09802 -72.43436 7999 ft 161 kts 286°
2026-05-09 00:08 42.10142 -72.44881 7995 ft 160 kts 285°
2026-05-09 00:08 42.10452 -72.46306 7991 ft 160 kts 285°
2026-05-09 00:08 42.10767 -72.47747 7983 ft 159 kts 285°
2026-05-09 00:09 42.11079 -72.49171 7991 ft 159 kts 285°
2026-05-09 00:09 42.11402 -72.50595 7988 ft 159 kts 286°
2026-05-09 00:09 42.11737 -72.52013 7991 ft 159 kts 286°
2026-05-09 00:09 42.12066 -72.53442 7990 ft 159 kts 285°
2026-05-09 00:10 42.12389 -72.54857 7990 ft 158 kts 285°
2026-05-09 00:10 42.12710 -72.56273 7983 ft 158 kts 285°
2026-05-09 00:10 42.13027 -72.57667 7981 ft 157 kts 285°
2026-05-09 00:10 42.13349 -72.59082 7984 ft 157 kts 285°
2026-05-09 00:11 42.13665 -72.60477 7982 ft 156 kts 285°
2026-05-09 00:11 42.13983 -72.61874 8021 ft 157 kts 285°
2026-05-09 00:11 42.14303 -72.63282 8021 ft 156 kts 285°
2026-05-09 00:11 42.14619 -72.64673 8025 ft 156 kts 285°
2026-05-09 00:12 42.14934 -72.66063 8019 ft 155 kts 285°
2026-05-09 00:12 42.15250 -72.67452 8019 ft 155 kts 285°
2026-05-09 00:12 42.15565 -72.68848 8032 ft 153 kts 285°
2026-05-09 00:12 42.15874 -72.70227 8027 ft 155 kts 286°
2026-05-09 00:13 42.16342 -72.71528 8026 ft 156 kts 298°
2026-05-09 00:13 42.16982 -72.72724 8029 ft 158 kts 303°
2026-05-09 00:13 42.17638 -72.73903 8031 ft 157 kts 301°
2026-05-09 00:13 42.18250 -72.75114 8032 ft 157 kts 298°
2026-05-09 00:14 42.18842 -72.76351 8027 ft 157 kts 302°
2026-05-09 00:14 42.19494 -72.77513 8021 ft 157 kts 302°
2026-05-09 00:14 42.20146 -72.78681 8029 ft 155 kts 302°
2026-05-09 00:14 42.20798 -72.79850 8025 ft 155 kts 302°
2026-05-09 00:15 42.21443 -72.81003 8028 ft 156 kts 302°
2026-05-09 00:15 42.22095 -72.82173 8029 ft 157 kts 302°
2026-05-09 00:15 42.22760 -72.83361 8033 ft 158 kts 302°
2026-05-09 00:15 42.23421 -72.84546 8034 ft 159 kts 302°
2026-05-09 00:16 42.24083 -72.85732 8037 ft 161 kts 302°
2026-05-09 00:16 42.24761 -72.86948 8034 ft 161 kts 302°
2026-05-09 00:16 42.25432 -72.88148 8029 ft 159 kts 302°
2026-05-09 00:16 42.26089 -72.89326 8028 ft 158 kts 302°
2026-05-09 00:17 42.26751 -72.90513 8030 ft 159 kts 302°
2026-05-09 00:17 42.27424 -72.91722 8032 ft 160 kts 302°
2026-05-09 00:17 42.28081 -72.92922 8009 ft 161 kts 302°
2026-05-09 00:17 42.28738 -72.94143 8014 ft 160 kts 300°
2026-05-09 00:18 42.29339 -72.95423 8017 ft 160 kts 298°
2026-05-09 00:18 42.29926 -72.96703 8007 ft 160 kts 297°
2026-05-09 00:18 42.30510 -72.97978 8005 ft 161 kts 298°
2026-05-09 00:18 42.31266 -72.99112 8012 ft 166 kts 312°
2026-05-09 00:19 42.32161 -73.00129 8008 ft 166 kts 314°
2026-05-09 00:19 42.32991 -73.01180 8002 ft 161 kts 299°
2026-05-09 00:19 42.33403 -73.02568 8012 ft 159 kts 292°
2026-05-09 00:19 42.33983 -73.03849 8008 ft 161 kts 298°
2026-05-09 00:20 42.34613 -73.05097 8014 ft 161 kts 301°
2026-05-09 00:20 42.35260 -73.06324 8006 ft 161 kts 301°
2026-05-09 00:20 42.35920 -73.07561 8009 ft 161 kts 301°
2026-05-09 00:20 42.36575 -73.08779 8015 ft 161 kts 301°
2026-05-09 00:21 42.37241 -73.10019 8010 ft 161 kts 301°
2026-05-09 00:21 42.37901 -73.11248 8007 ft 162 kts 301°
2026-05-09 00:21 42.38563 -73.12480 8008 ft 161 kts 302°
2026-05-09 00:21 42.39222 -73.13708 8010 ft 161 kts 302°
2026-05-09 00:22 42.39878 -73.14931 8010 ft 161 kts 301°
2026-05-09 00:22 42.40533 -73.16151 8009 ft 160 kts 301°
2026-05-09 00:22 42.41182 -73.17360 8007 ft 160 kts 301°
2026-05-09 00:22 42.41837 -73.18584 8013 ft 161 kts 301°
2026-05-09 00:23 42.42496 -73.19813 8010 ft 161 kts 301°
2026-05-09 00:23 42.43157 -73.21044 8009 ft 161 kts 301°
2026-05-09 00:23 42.43813 -73.22268 8001 ft 160 kts 301°
2026-05-09 00:23 42.44461 -73.23478 8008 ft 160 kts 301°
2026-05-09 00:24 42.45118 -73.24704 8009 ft 159 kts 301°
2026-05-09 00:24 42.45766 -73.25914 8010 ft 159 kts 301°
2026-05-09 00:24 42.46413 -73.27122 8008 ft 158 kts 301°
2026-05-09 00:24 42.47060 -73.28332 8005 ft 159 kts 301°
2026-05-09 00:25 42.47704 -73.29535 8004 ft 158 kts 301°
2026-05-09 00:25 42.48357 -73.30753 8007 ft 158 kts 301°
2026-05-09 00:25 42.48996 -73.31948 8005 ft 157 kts 301°
2026-05-09 00:25 42.49639 -73.33149 8000 ft 159 kts 301°
2026-05-09 00:26 42.50295 -73.34378 8006 ft 162 kts 301°
2026-05-09 00:26 42.50950 -73.35603 7999 ft 161 kts 301°
2026-05-09 00:26 42.51610 -73.36837 8007 ft 161 kts 301°
2026-05-09 00:26 42.52261 -73.38054 8002 ft 160 kts 300°
2026-05-09 00:27 42.52915 -73.39278 8011 ft 160 kts 301°
2026-05-09 00:27 42.53562 -73.40489 8008 ft 160 kts 301°
2026-05-09 00:27 42.54215 -73.41711 8009 ft 160 kts 301°
2026-05-09 00:27 42.54877 -73.42951 8020 ft 162 kts 300°
2026-05-09 00:28 42.55537 -73.44189 8002 ft 163 kts 301°
2026-05-09 00:28 42.55982 -73.45021 8002 ft 163 kts 301°
2026-05-09 00:28 42.56868 -73.46681 8004 ft 163 kts 301°
2026-05-09 00:28 42.57528 -73.47918 8003 ft 163 kts 301°
2026-05-09 00:29 42.58244 -73.49159 7822 ft 172 kts 312°
2026-05-09 00:29 42.59377 -73.49710 7639 ft 183 kts 352°
2026-05-09 00:29 42.60234 -73.49551 7519 ft 186 kts
2026-05-09 00:29 42.61903 -73.49071 7273 ft 183 kts
2026-05-09 00:30 42.62731 -73.48831 7138 ft 182 kts
2026-05-09 00:30 42.63958 -73.48482 6937 ft 180 kts
2026-05-09 00:30 42.65593 -73.48033 6668 ft 180 kts
2026-05-09 00:30 42.66429 -73.47815 6534 ft 180 kts
2026-05-09 00:31 42.67661 -73.47505 6294 ft 183 kts
2026-05-09 00:31 42.68924 -73.47203 6034 ft 186 kts
2026-05-09 00:31 42.70195 -73.46911 5782 ft 185 kts
2026-05-09 00:31 42.71454 -73.46629 5441 ft 177 kts
2026-05-09 00:32 42.72639 -73.46369 5060 ft 173 kts
2026-05-09 00:32 42.73821 -73.46121 4668 ft 170 kts
2026-05-09 00:32 42.74978 -73.45895 4275 ft 168 kts
2026-05-09 00:32 42.76098 -73.45936 4019 ft 151 kts 332°
2026-05-09 00:33 42.76744 -73.46899 3806 ft 138 kts 283°
2026-05-09 00:33 42.76553 -73.48121 3545 ft 139 kts 237°
2026-05-09 00:33 42.75985 -73.49198 3293 ft 138 kts 244°
2026-05-09 00:33 42.75673 -73.50372 3165 ft 129 kts 263°
2026-05-09 00:34 42.75603 -73.51548 3098 ft 121 kts 266°
2026-05-09 00:34 42.75558 -73.52736 3017 ft 132 kts 268°
2026-05-09 00:34 42.75523 -73.54007 2974 ft 138 kts 269°
2026-05-09 00:34 42.75493 -73.55351 2866 ft 145 kts 269°
2026-05-09 00:35 42.75462 -73.56727 2830 ft 146 kts 269°
2026-05-09 00:35 42.75434 -73.58106 2831 ft 144 kts 269°
2026-05-09 00:35 42.75405 -73.59454 2802 ft 142 kts 269°
2026-05-09 00:35 42.75377 -73.60772 2767 ft 139 kts 269°
2026-05-09 00:36 42.75348 -73.62106 2629 ft 139 kts 269°
2026-05-09 00:36 42.75320 -73.63393 2522 ft 131 kts 269°
2026-05-09 00:36 42.75293 -73.64598 2412 ft 128 kts 269°
2026-05-09 00:36 42.75266 -73.65829 2246 ft 130 kts 270°
2026-05-09 00:37 42.75239 -73.67072 2067 ft 133 kts 269°
2026-05-09 00:37 42.75211 -73.68323 1881 ft 126 kts 269°
2026-05-09 00:37 42.75186 -73.69444 1695 ft 111 kts 269°
2026-05-09 00:37 42.75162 -73.70462 1547 ft 109 kts 269°
2026-05-09 00:38 42.75139 -73.71481 1392 ft 106 kts 269°
2026-05-09 00:38 42.75117 -73.72503 1249 ft 110 kts 268°
2026-05-09 00:38 42.75093 -73.73533 1091 ft 108 kts 268°
2026-05-09 00:38 42.75068 -73.74555 922 ft 107 kts 268°
2026-05-09 00:39 42.75047 -73.75550 810 ft 106 kts 267°
2026-05-09 00:39 42.75023 -73.76547 660 ft 104 kts 267°
2026-05-09 00:39 42.74997 -73.77533 524 ft 106 kts 268°
2026-05-09 00:39 42.74979 -73.78515 379 ft 100 kts 266°
2026-05-09 00:40 42.74960 -73.79365 283 ft 77 kts 267°
2026-05-09 00:40 42.74947 -73.79867 280 ft 33 kts 268°
2026-05-09 00:40 42.74897 -73.80124 280 ft 28 kts 231°
2026-05-09 00:41 42.74822 -73.80495 279 ft 27 kts 267°
2026-05-09 00:41 42.74769 -73.80620 281 ft 15 kts 179°
2026-05-09 00:41 42.74627 -73.80615 282 ft 25 kts 180°
2026-05-09 00:41 42.74429 -73.80605 285 ft 32 kts 178°
2026-05-09 00:42 42.74186 -73.80594 284 ft 33 kts 177°
2026-05-09 00:42 42.74023 -73.80587 283 ft 11 kts 182°
2026-05-09 00:42 42.74000 -73.80657 283 ft 11 kts 264°
2026-05-09 00:42 42.73945 -73.80658 283 ft 13 kts 175°
2026-05-09 00:43 42.73926 -73.80721 283 ft 5 kts 268°
2026-05-09 00:43 42.73925 -73.80727 283 ft 0 kts 266°
2026-05-09 00:43 42.73925 -73.80726 283 ft 0 kts 266°